Time,TemperatureF,DewpointF,PressureIn,WindDirection,WindDirectionDegrees,WindSpeedMPH,WindSpeedGustMPH,Humidity,HourlyPrecipIn,Conditions,Clouds,dailyrainin,SolarRadiationWatts/m^2,SoftwareType,DateUTC
2017-08-19 00:14:00,74.9,73.4,29.85,SE,138,0.0,0.0,95,0.00,,---,0.00,0.00,VWS V15.00,2017-08-19 04:14:00,
2017-08-19 00:29:00,75.1,73.6,29.85,SSW,203,0.0,0.0,95,0.00,,---,0.00,0.00,VWS V15.00,2017-08-19 04:29:00,
2017-08-19 00:44:00,75.4,73.9,29.85,SSE,161,0.0,0.0,95,0.00,,---,0.00,0.00,VWS V15.00,2017-08-19 04:44:00,
2017-08-19 00:59:00,75.5,74.0,29.85,SW,225,0.0,0.0,95,0.00,,---,0.00,0.00,VWS V15.00,2017-08-19 04:59:00,
2017-08-19 01:14:00,75.6,74.1,29.85,West,273,0.0,0.0,95,0.00,,---,0.00,0.00,VWS V15.00,2017-08-19 05:14:00,
2017-08-19 01:29:00,75.6,74.1,29.84,West,259,0.0,0.0,95,0.00,,---,0.00,0.00,VWS V15.00,2017-08-19 05:29:00,
2017-08-19 01:44:00,75.6,74.1,29.83,West,259,0.0,0.0,95,0.00,,---,0.00,0.00,VWS V15.00,2017-08-19 05:44:00,
2017-08-19 01:59:00,75.6,74.1,29.83,West,259,0.0,0.0,95,0.00,,---,0.00,0.00,VWS V15.00,2017-08-19 05:59:00,
2017-08-19 02:14:00,75.6,74.1,29.83,SSW,203,0.0,0.0,95,0.00,,---,0.00,0.00,VWS V15.00,2017-08-19 06:14:00,
2017-08-19 02:29:00,75.4,73.9,29.83,SSW,210,0.0,0.0,95,0.00,,---,0.00,0.00,VWS V15.00,2017-08-19 06:29:00,
2017-08-19 02:44:00,75.1,73.6,29.84,SSW,211,0.0,0.0,95,0.00,,---,0.00,0.00,VWS V15.00,2017-08-19 06:44:00,
2017-08-19 02:59:00,74.7,73.2,29.83,SSW,211,0.0,0.0,95,0.00,,---,0.00,0.00,VWS V15.00,2017-08-19 06:59:00,
2017-08-19 03:14:00,74.4,72.9,29.83,SSW,213,0.0,0.0,95,0.00,,---,0.00,0.00,VWS V15.00,2017-08-19 07:14:00,
2017-08-19 03:29:00,74.3,72.8,29.83,SW,225,0.0,0.0,95,0.00,,---,0.00,0.00,VWS V15.00,2017-08-19 07:29:00,
2017-08-19 03:44:00,74.3,72.8,29.84,SW,225,0.0,0.0,95,0.00,,---,0.00,0.00,VWS V15.00,2017-08-19 07:44:00,
2017-08-19 03:59:00,74.2,72.7,29.84,SW,225,0.0,0.0,95,0.00,,---,0.00,0.00,VWS V15.00,2017-08-19 07:59:00,
2017-08-19 04:14:00,74.1,72.6,29.84,SW,225,0.0,0.0,95,0.00,,---,0.00,0.00,VWS V15.00,2017-08-19 08:14:00,
2017-08-19 04:29:00,73.9,72.4,29.84,SW,225,0.0,0.0,95,0.00,,---,0.00,0.00,VWS V15.00,2017-08-19 08:29:00,
2017-08-19 04:44:00,73.7,72.2,29.83,SW,225,0.0,0.0,95,0.00,,---,0.00,0.00,VWS V15.00,2017-08-19 08:44:00,
2017-08-19 04:59:00,73.4,71.9,29.83,SW,225,0.0,0.0,95,0.00,,---,0.00,0.00,VWS V15.00,2017-08-19 08:59:00,
2017-08-19 05:14:00,73.4,71.9,29.84,SW,225,0.0,0.0,95,0.00,,---,0.00,0.00,VWS V15.00,2017-08-19 09:14:00,
2017-08-19 05:29:00,73.4,71.9,29.84,SW,225,0.0,0.0,95,0.01,,---,0.01,0.00,VWS V15.00,2017-08-19 09:29:00,
2017-08-19 05:44:00,73.6,72.4,29.84,SW,225,0.0,0.0,96,0.01,,---,0.01,0.00,VWS V15.00,2017-08-19 09:44:00,
2017-08-19 05:59:00,73.8,72.6,29.84,SW,225,0.0,0.0,96,0.01,,---,0.01,0.00,VWS V15.00,2017-08-19 09:59:00,
2017-08-19 06:14:00,74.0,72.8,29.84,SW,225,0.0,0.0,96,0.01,,---,0.01,0.00,VWS V15.00,2017-08-19 10:14:00,
2017-08-19 06:29:00,74.0,72.8,29.84,SW,225,0.0,0.0,96,0.01,,---,0.01,0.00,VWS V15.00,2017-08-19 10:29:00,
2017-08-19 06:44:00,74.0,72.8,29.85,SW,225,0.0,0.0,96,0.00,,---,0.01,12.00,VWS V15.00,2017-08-19 10:44:00,
2017-08-19 06:59:00,74.0,72.8,29.85,SW,225,0.0,0.0,96,0.00,,---,0.01,21.00,VWS V15.00,2017-08-19 10:59:00,
2017-08-19 07:14:00,74.4,73.2,29.86,SW,225,0.0,0.0,96,0.00,,---,0.01,14.00,VWS V15.00,2017-08-19 11:14:00,
2017-08-19 07:29:00,74.5,73.3,29.86,SW,225,0.0,0.0,96,0.00,,---,0.01,21.00,VWS V15.00,2017-08-19 11:29:00,
2017-08-19 07:44:00,74.6,73.4,29.87,SW,225,0.0,0.0,96,0.00,,---,0.01,98.00,VWS V15.00,2017-08-19 11:44:00,
2017-08-19 07:59:00,75.1,73.9,29.88,SW,225,0.0,0.0,96,0.00,,---,0.01,39.00,VWS V15.00,2017-08-19 11:59:00,
2017-08-19 08:14:00,75.3,74.1,29.88,SW,225,0.0,0.0,96,0.00,,---,0.01,84.00,VWS V15.00,2017-08-19 12:14:00,